Weather History for KAVP - October, 2012

Change the Weather History Date:

Thursday, October 11, 2012

  Actual Average Record
Temperature  
Mean Temperature 48 °F 52 °F  
Max Temperature 56 °F 62 °F 86 °F (1949)
Min Temperature 39 °F 42 °F 26 °F (1956)
Degree Days  
Heating Degree Days 17 13  
Month to date heating degree days 106 121  
Since 1 July heating degree days 223 283  
Cooling Degree Days 0 0  
Month to date cooling degree days 3 0  
Year to date cooling degree days 864 576  
Moisture  
Dew Point 32 °F    
Average Humidity 57    
Maximum Humidity 79    
Minimum Humidity 35    
Precipitation  
Precipitation T in 0.12 in 2.08 in (2007)
Month to date precipitation 1.06 1.29  
Year to date precipitation 28.41 30.39  
Sea Level Pressure  
Sea Level Pressure 30.13 in    
Wind  
Wind Speed 7 mph (WSW)    
Max Wind Speed 15 mph    
Max Gust Speed 22 mph    
Visibility 10 miles    
Events      
T = Trace of Precipitation, MM = Missing Value Source: NWS Daily Summary

Daily Weather History Graph

Daily Weather History Graph

Search for Another Location

Airport or City:

Trip Planner

Search our weather history database for the weather conditions in past years. The results will help you decide how hot, cold, wet, or windy it might be!

Date:

Astronomy

Oct. 11, 2012 Rise Set
Actual Time 7:10 AM EDT 6:27 PM EDT
Civil Twilight 6:43 AM EDT 6:55 PM EDT
Nautical Twilight 6:11 AM EDT 7:27 PM EDT
Astronomical Twilight 5:38 AM EDT 7:59 PM EDT
Moon 2:44 AM EDT (10/11) 4:04 PM EDT (10/11)
Length of Visible Light 12h 12m
Length of Day
11h 16m
Waning Crescent, 18% of the Moon is Illuminated
Oct 11
Waning Crescent
Oct 15
New
Oct 21
First Quarter
Oct 29
Full
Nov 6
Last Quarter

Hourly Weather History & Observations

Time (EDT) Temp. Windchill Dew Point Humidity Pressure Visibility Wind Dir Wind Speed Gust Speed Precip Events Conditions
12:54 AM 45.0 °F 40.6 °F 37.9 °F 76% 30.01 in 10.0 mi WSW 8.1 mph - N/A   Scattered Clouds
1:54 AM 44.1 °F 40.1 °F 36.0 °F 73% 30.03 in 10.0 mi SW 6.9 mph - N/A   Partly Cloudy
2:54 AM 45.0 °F 41.2 °F 36.0 °F 71% 30.04 in 10.0 mi West 6.9 mph - 0.00 in   Overcast
3:54 AM 44.1 °F 39.5 °F 33.1 °F 65% 30.06 in 10.0 mi SW 8.1 mph - N/A   Overcast
4:54 AM 42.1 °F 36.1 °F 32.0 °F 67% 30.09 in 10.0 mi WSW 10.4 mph - N/A   Clear
5:54 AM 41.0 °F 38.0 °F 30.9 °F 67% 30.13 in 10.0 mi WSW 4.6 mph - N/A   Partly Cloudy
6:54 AM 39.0 °F 34.8 °F 33.1 °F 79% 30.16 in 10.0 mi SW 5.8 mph - N/A   Clear
7:54 AM 39.9 °F 34.5 °F 33.1 °F 77% 30.19 in 10.0 mi SW 8.1 mph - N/A   Clear
8:54 AM 42.1 °F 36.6 °F 33.1 °F 70% 30.22 in 10.0 mi WSW 9.2 mph - N/A   Clear
9:54 AM 46.0 °F 43.1 °F 30.9 °F 56% 30.22 in 10.0 mi West 5.8 mph - N/A   Partly Cloudy
10:54 AM 48.9 °F - 28.9 °F 46% 30.22 in 10.0 mi WNW 9.2 mph - N/A   Clear
11:54 AM 51.1 °F - 28.9 °F 43% 30.20 in 10.0 mi Variable 4.6 mph - N/A   Clear
12:54 PM 52.0 °F - 28.9 °F 41% 30.19 in 10.0 mi Variable 3.5 mph - N/A   Clear
1:54 PM 55.0 °F - 28.0 °F 35% 30.15 in 10.0 mi West 8.1 mph - N/A   Clear
2:54 PM 55.0 °F - 30.0 °F 38% 30.14 in 10.0 mi SW 8.1 mph - N/A   Clear
3:54 PM 55.0 °F - 30.9 °F 40% 30.13 in 10.0 mi SW 8.1 mph - N/A   Clear
4:54 PM 55.0 °F - 30.0 °F 38% 30.12 in 10.0 mi SW 11.5 mph 16.1 mph N/A   Clear
5:54 PM 53.1 °F - 30.0 °F 41% 30.13 in 10.0 mi SSW 8.1 mph 17.3 mph N/A   Clear
6:54 PM 48.0 °F - 33.1 °F 56% 30.13 in 10.0 mi Calm Calm - N/A   Clear
7:54 PM 50.0 °F - 32.0 °F 50% 30.13 in 10.0 mi SSW 6.9 mph - N/A   Clear
8:54 PM 50.0 °F - 30.9 °F 48% 30.13 in 10.0 mi SSW 8.1 mph - N/A   Clear
9:54 PM 46.0 °F 43.9 °F 33.1 °F 61% 30.14 in 10.0 mi West 4.6 mph - N/A   Clear
10:54 PM 43.0 °F - 35.1 °F 74% 30.14 in 10.0 mi Calm Calm - N/A   Clear
11:54 PM 44.1 °F 40.8 °F 34.0 °F 68% 30.13 in 10.0 mi SW 5.8 mph - N/A   Clear